| time (UTC) | temp C | wind direction | speed KPH | gust KPH | rain 1hr cm | rain 24hr cm | rain mn cm | humidity % | barometer mb |
| 20260504195027 | 22 | 209 | 12.9 | 20.9 | 0.00 | 0.00 | 0.00 | 47 | 680.0 |
| 20260504194027 | 22 | 214 | 12.9 | 17.7 | 0.00 | 0.00 | 0.00 | 47 | 680.0 |
| 20260504193048 | 22 | 223 | 12.9 | 17.7 | 0.00 | 0.00 | 0.00 | 46 | 680.0 |
| 20260504192028 | 22 | 221 | 12.9 | 17.7 | 0.00 | 0.00 | 0.00 | 46 | 680.0 |
| 20260504191028 | 22 | 220 | 11.3 | 17.7 | 0.00 | 0.00 | 0.00 | 46 | 680.0 |
| 20260504190028 | 22 | 203 | 12.9 | 19.3 | 0.00 | 0.00 | 0.00 | 47 | 680.0 |
| 20260504185028 | 22 | 219 | 8.0 | 11.3 | 0.00 | 0.00 | 0.00 | 47 | 680.0 |
| 20260504184028 | 22 | 230 | 11.3 | 16.1 | 0.00 | 0.00 | 0.00 | 47 | 680.0 |
| 20260504183017 | 22 | 221 | 8.0 | 16.1 | 0.00 | 0.00 | 0.00 | 47 | 680.0 |
| 20260504182017 | 22 | 212 | 12.9 | 16.1 | 0.00 | 0.00 | 0.00 | 47 | 680.1 |
| 20260504181018 | 22 | 212 | 14.5 | 25.7 | 0.00 | 0.00 | 0.00 | 47 | 680.1 |
| 20260504180018 | 23 | 229 | 11.3 | 16.1 | 0.00 | 0.00 | 0.00 | 46 | 680.1 |
| 20260504175018 | 23 | 216 | 12.9 | 22.5 | 0.00 | 0.00 | 0.00 | 44 | 680.1 |
| 20260504174119 | 23 | 225 | 11.3 | 16.1 | 0.00 | 0.00 | 0.00 | 43 | 680.1 |
| 20260504173018 | 23 | 218 | 11.3 | 17.7 | 0.00 | 0.00 | 0.00 | 42 | 680.1 |
| 20260504172038 | 24 | 231 | 14.5 | 20.9 | 0.00 | 0.00 | 0.00 | 42 | 680.1 |
| 20260504171019 | 23 | 241 | 8.0 | 14.5 | 0.00 | 0.00 | 0.00 | 42 | 680.1 |
| 20260504151040 | 21 | 222 | 11.3 | 16.1 | 0.00 | 0.00 | 0.00 | 54 | 679.9 |
| 20260504141022 | 16 | 230 | 8.0 | 12.9 | 0.00 | 0.00 | 0.00 | 64 | 679.7 |
| 20260504081021 | 8 | 235 | 6.4 | 11.3 | 0.00 | 0.00 | 0.00 | 72 | 679.4 |
| 20260504050023 | 10 | 238 | 4.8 | 9.7 | 0.00 | 0.00 | 0.00 | 64 | 679.5 |
| 20260504045023 | 10 | 243 | 4.8 | 11.3 | 0.00 | 0.00 | 0.00 | 65 | 679.5 |
| 20260504044024 | 10 | 232 | 6.4 | 11.3 | 0.00 | 0.00 | 0.00 | 65 | 679.5 |
| 20260504043024 | 10 | 233 | 6.4 | 11.3 | 0.00 | 0.00 | 0.00 | 65 | 679.5 |
| 20260504042024 | 10 | 235 | 6.4 | 11.3 | 0.00 | 0.00 | 0.00 | 65 | 679.5 |
| 20260504041024 | 10 | 239 | 6.4 | 11.3 | 0.00 | 0.00 | 0.00 | 65 | 679.5 |
| 20260504040024 | 10 | 233 | 6.4 | 11.3 | 0.00 | 0.00 | 0.00 | 63 | 679.5 |
| 20260504035024 | 11 | 242 | 4.8 | 9.7 | 0.00 | 0.00 | 0.00 | 63 | 679.5 |
| 20260504034025 | 11 | 237 | 4.8 | 11.3 | 0.00 | 0.00 | 0.00 | 61 | 679.5 |
| 20260504033025 | 11 | 235 | 4.8 | 8.0 | 0.00 | 0.00 | 0.00 | 60 | 679.5 |
| 20260504032025 | 11 | 246 | 4.8 | 9.7 | 0.00 | 0.00 | 0.00 | 60 | 679.6 |
| 20260504031045 | 11 | 243 | 6.4 | 14.5 | 0.00 | 0.00 | 0.00 | 60 | 679.6 |
| 20260504030025 | 12 | 250 | 4.8 | 9.7 | 0.00 | 0.00 | 0.00 | 61 | 679.6 |
| 20260504025025 | 12 | 256 | 4.8 | 9.7 | 0.00 | 0.00 | 0.00 | 60 | 679.6 |
| 20260504024046 | 12 | 259 | 6.4 | 9.7 | 0.00 | 0.00 | 0.00 | 59 | 679.6 |
| 20260504023026 | 12 | 242 | 6.4 | 16.1 | 0.00 | 0.00 | 0.00 | 57 | 679.6 |
| 20260504022026 | 12 | 234 | 6.4 | 11.3 | 0.00 | 0.00 | 0.00 | 56 | 679.6 |
| 20260504021046 | 12 | 226 | 8.0 | 11.3 | 0.00 | 0.00 | 0.00 | 55 | 679.6 |
| 20260504020026 | 12 | 227 | 4.8 | 14.5 | 0.00 | 0.00 | 0.00 | 54 | 679.6 |
| 20260504015046 | 12 | 237 | 6.4 | 12.9 | 0.00 | 0.00 | 0.00 | 53 | 679.6 |
| 20260504014026 | 12 | 240 | 6.4 | 11.3 | 0.00 | 0.00 | 0.00 | 53 | 679.6 |
| 20260504013027 | 12 | 233 | 6.4 | 11.3 | 0.00 | 0.00 | 0.00 | 52 | 679.6 |
| 20260504012027 | 12 | 239 | 8.0 | 12.9 | 0.00 | 0.00 | 0.00 | 52 | 679.6 |
| 20260504011027 | 12 | 235 | 6.4 | 16.1 | 0.00 | 0.00 | 0.00 | 51 | 679.6 |
| 20260504010027 | 13 | 231 | 8.0 | 14.5 | 0.00 | 0.00 | 0.00 | 51 | 679.6 |
| 20260504005027 | 13 | 238 | 6.4 | 9.7 | 0.00 | 0.00 | 0.00 | 51 | 679.6 |
| 20260504004027 | 13 | 230 | 4.8 | 11.3 | 0.00 | 0.00 | 0.00 | 51 | 679.6 |
| 20260504003047 | 13 | 230 | 4.8 | 9.7 | 0.00 | 0.00 | 0.00 | 51 | 679.6 |
| 20260504002048 | 13 | 235 | 6.4 | 12.9 | 0.00 | 0.00 | 0.00 | 50 | 679.6 |
| 20260504001028 | 13 | 237 | 6.4 | 11.3 | 0.00 | 0.00 | 0.00 | 48 | 679.6 |
| 20260504000028 | 13 | 244 | 6.4 | 12.9 | 0.00 | 0.00 | 0.00 | 48 | 679.7 |
| 20260503235028 | 13 | 236 | 4.8 | 6.4 | 0.00 | 0.00 | 0.00 | 48 | 679.7 |
| 20260503234028 | 14 | 240 | 4.8 | 12.9 | 0.00 | 0.00 | 0.00 | 48 | 679.7 |
| 20260503233048 | 14 | 262 | 3.2 | 6.4 | 0.00 | 0.00 | 0.00 | 47 | 679.7 |
| 20260503232029 | 14 | 273 | 3.2 | 9.7 | 0.00 | 0.00 | 0.00 | 47 | 679.7 |
| 20260503231029 | 14 | 262 | 3.2 | 8.0 | 0.00 | 0.00 | 0.00 | 47 | 679.7 |
| 20260503230029 | 14 | 263 | 4.8 | 9.7 | 0.00 | 0.00 | 0.00 | 47 | 679.7 |
| 20260503225029 | 14 | 248 | 4.8 | 12.9 | 0.00 | 0.00 | 0.00 | 47 | 679.7 |
| 20260503224109 | 14 | 264 | 4.8 | 9.7 | 0.00 | 0.00 | 0.00 | 46 | 679.7 |
| 20260503223029 | 14 | 239 | 4.8 | 14.5 | 0.00 | 0.00 | 0.00 | 46 | 679.7 |
| 20260503222030 | 14 | 292 | 1.6 | 4.8 | 0.00 | 0.00 | 0.00 | 46 | 679.7 |
| 20260503221029 | 14 | 291 | 3.2 | 6.4 | 0.00 | 0.00 | 0.00 | 46 | 679.7 |
| 20260503220030 | 14 | 285 | 3.2 | 9.7 | 0.00 | 0.00 | 0.00 | 46 | 679.7 |
| 20260503215030 | 14 | 240 | 3.2 | 4.8 | 0.00 | 0.00 | 0.00 | 46 | 679.7 |
| 20260503214029 | 14 | 259 | 3.2 | 8.0 | 0.00 | 0.00 | 0.00 | 44 | 679.7 |
| 20260503213030 | 15 | 239 | 6.4 | 12.9 | 0.00 | 0.00 | 0.00 | 44 | 679.7 |
| 20260503212030 | 15 | 233 | 6.4 | 12.9 | 0.00 | 0.00 | 0.00 | 46 | 679.7 |
| 20260503211050 | 15 | 262 | 1.6 | 4.8 | 0.00 | 0.00 | 0.00 | 47 | 679.7 |
| 20260503210051 | 15 | 301 | 3.2 | 4.8 | 0.00 | 0.00 | 0.00 | 46 | 679.7 |
| 20260503205031 | 15 | 239 | 8.0 | 17.7 | 0.00 | 0.00 | 0.00 | 48 | 679.7 |
| 20260503204031 | 14 | 302 | 3.2 | 9.7 | 0.00 | 0.00 | 0.00 | 48 | 679.7 |
| 20260503203031 | 14 | 333 | 4.8 | 9.7 | 0.00 | 0.00 | 0.00 | 51 | 679.7 |
| 20260503202031 | 14 | 277 | 3.2 | 4.8 | 0.00 | 0.00 | 0.00 | 50 | 679.7 |
| 20260503201017 | 14 | 322 | 8.0 | 17.7 | 0.00 | 0.00 | 0.00 | 48 | 679.7 |
| 20260503200017 | 15 | 302 | 3.2 | 9.7 | 0.00 | 0.00 | 0.00 | 47 | 679.7 |